ELY5258 LGMK-LLBG

Flight info

Callsign ELY5258
Flight time 1h 30m
Altitude 38000
Route PIDAX UL995 ULFIT UM978 TOSKA M67 MAROS L609 ZUKKO
Aircraft B738/M-SDE2E3FGHIRWXY/LB1

Departure

Time 2026-04-25 06:23
Airport Mykonos Island National Airport (LGMK)

Arrival

Time 2026-04-25 07:54
Airport Ben Gurion International Airport (LLBG)
Time Latitude Longitude Altitude Speed Heading
2026-04-25 06:03 37.43527 25.34645 435 ft 0 kts 253°
2026-04-25 06:17 37.43531 25.34660 407 ft 4 kts 244°
2026-04-25 06:17 37.43547 25.34684 400 ft 4 kts 202°
2026-04-25 06:17 37.43568 25.34687 401 ft 1 kts 161°
2026-04-25 06:20 37.43565 25.34688 401 ft 2 kts 161°
2026-04-25 06:20 37.43529 25.34704 404 ft 9 kts 160°
2026-04-25 06:20 37.43446 25.34754 404 ft 17 kts 142°
2026-04-25 06:20 37.43372 25.34878 403 ft 19 kts 143°
2026-04-25 06:21 37.43245 25.34941 403 ft 20 kts 160°
2026-04-25 06:21 37.43095 25.35008 405 ft 25 kts 160°
2026-04-25 06:21 37.42915 25.35089 406 ft 29 kts 160°
2026-04-25 06:21 37.42744 25.35116 410 ft 22 kts 175°
2026-04-25 06:22 37.42692 25.35166 409 ft 9 kts 47°
2026-04-25 06:22 37.42714 25.35173 409 ft 5 kts 359°
2026-04-25 06:22 37.42733 25.35167 408 ft 0 kts 343°
2026-04-25 06:23 37.42801 25.35138 405 ft 42 kts 341°
2026-04-25 06:23 37.43335 25.34903 403 ft 118 kts 341°
2026-04-25 06:23 37.44249 25.34526 752 ft 145 kts 343°
2026-04-25 06:23 37.45252 25.34114 1375 ft 167 kts 345°
2026-04-25 06:24 37.46422 25.33542 2057 ft 179 kts 342°
2026-04-25 06:24 37.47636 25.32933 2725 ft 199 kts 342°
2026-04-25 06:24 37.48956 25.32274 3338 ft 207 kts 342°
2026-04-25 06:24 37.50312 25.31596 3972 ft 217 kts 341°
2026-04-25 06:25 37.51699 25.30555 4469 ft 244 kts 322°
2026-04-25 06:25 37.52814 25.28875 5214 ft 257 kts 300°
2026-04-25 06:25 37.53322 25.26702 6141 ft 261 kts 273°
2026-04-25 06:25 37.53157 25.24532 6928 ft 266 kts 258°
2026-04-25 06:26 37.52783 25.22233 7813 ft 267 kts 258°
2026-04-25 06:26 37.52330 25.19950 8508 ft 275 kts 245°
2026-04-25 06:26 37.51209 25.18055 9460 ft 269 kts 218°
2026-04-25 06:26 37.49641 25.16770 10242 ft 272 kts 203°
2026-04-25 06:27 37.47851 25.15996 10997 ft 272 kts 189°
2026-04-25 06:27 37.45975 25.15658 11817 ft 272 kts 183°
2026-04-25 06:27 37.44061 25.15540 12559 ft 276 kts 177°
2026-04-25 06:27 37.42156 25.15694 13371 ft 277 kts 171°
2026-04-25 06:28 37.40241 25.16154 14176 ft 277 kts 162°
2026-04-25 06:28 37.38426 25.16908 14849 ft 280 kts 155°
2026-04-25 06:28 37.36658 25.17977 15489 ft 284 kts 148°
2026-04-25 06:28 37.34993 25.19349 16167 ft 287 kts 141°
2026-04-25 06:29 37.33477 25.20997 16904 ft 287 kts 133°
2026-04-25 06:29 37.32145 25.22889 17583 ft 290 kts 126°
2026-04-25 06:29 37.31030 25.24977 18261 ft 293 kts 118°
2026-04-25 06:29 37.30120 25.27306 18884 ft 294 kts 110°
2026-04-25 06:30 37.29481 25.29730 19490 ft 296 kts 103°
2026-04-25 06:30 37.29103 25.32282 20082 ft 298 kts 96°
2026-04-25 06:30 37.29007 25.34894 20733 ft 299 kts 89°
2026-04-25 06:30 37.29192 25.37509 21348 ft 302 kts 81°
2026-04-25 06:31 37.29641 25.40115 21834 ft 310 kts 78°
2026-04-25 06:31 37.29750 25.42890 21960 ft 328 kts 100°
2026-04-25 06:31 37.28939 25.45628 22111 ft 345 kts 122°
2026-04-25 06:31 37.27253 25.47866 22226 ft 365 kts 143°
2026-04-25 06:32 37.25091 25.49593 22350 ft 381 kts 145°
2026-04-25 06:32 37.23038 25.51777 22459 ft 393 kts 130°
2026-04-25 06:32 37.22441 25.52675 22488 ft 397 kts 125°
2026-04-25 06:34 37.14812 25.75045 24414 ft 438 kts 112°
2026-04-25 06:34 37.13633 25.78587 24729 ft 442 kts 112°
2026-04-25 06:34 37.12439 25.82155 25078 ft 444 kts 113°
2026-04-25 06:34 37.11242 25.85719 25498 ft 445 kts 113°
2026-04-25 06:35 37.10036 25.89304 25790 ft 448 kts 113°
2026-04-25 06:35 37.08819 25.92917 26043 ft 452 kts 113°
2026-04-25 06:35 37.07591 25.96562 26377 ft 454 kts 114°
2026-04-25 06:35 37.06352 26.00235 26588 ft 459 kts 114°
2026-04-25 06:36 37.05106 26.03926 26881 ft 461 kts 114°
2026-04-25 06:36 37.03865 26.07598 27213 ft 463 kts 114°
2026-04-25 06:36 37.02606 26.11320 27524 ft 465 kts 114°
2026-04-25 06:36 37.01341 26.15054 27821 ft 466 kts 115°
2026-04-25 06:37 37.00073 26.18795 28208 ft 466 kts 115°
2026-04-25 06:37 36.98810 26.22517 28675 ft 464 kts 115°
2026-04-25 06:37 36.97562 26.26187 29111 ft 463 kts 115°
2026-04-25 06:37 36.96302 26.29900 29498 ft 463 kts 115°
2026-04-25 06:38 36.95041 26.33624 29878 ft 463 kts 115°
2026-04-25 06:38 36.93784 26.37332 30255 ft 463 kts 115°
2026-04-25 06:38 36.92528 26.41037 30614 ft 462 kts 115°
2026-04-25 06:38 36.91288 26.44686 30935 ft 461 kts 115°
2026-04-25 06:39 36.90018 26.48417 31252 ft 461 kts 115°
2026-04-25 06:39 36.88774 26.52067 31586 ft 461 kts 115°
2026-04-25 06:39 36.87515 26.55748 31933 ft 460 kts 115°
2026-04-25 06:39 36.86253 26.59426 32249 ft 459 kts 115°
2026-04-25 06:40 36.84995 26.63093 32588 ft 459 kts 115°
2026-04-25 06:40 36.83734 26.66762 32906 ft 458 kts 115°
2026-04-25 06:40 36.82491 26.70377 33202 ft 458 kts 115°
2026-04-25 06:40 36.81235 26.74031 33512 ft 458 kts 115°
2026-04-25 06:41 36.79977 26.77690 33827 ft 457 kts 115°
2026-04-25 06:41 36.78725 26.81331 34107 ft 457 kts 115°
2026-04-25 06:41 36.77472 26.84969 34348 ft 457 kts 115°
2026-04-25 06:41 36.76214 26.88618 34559 ft 457 kts 116°
2026-04-25 06:42 36.74954 26.92268 34760 ft 458 kts 116°
2026-04-25 06:42 36.73705 26.95882 35014 ft 457 kts 116°
2026-04-25 06:42 36.72445 26.99521 35299 ft 456 kts 116°
2026-04-25 06:42 36.71184 27.03163 35533 ft 456 kts 116°
2026-04-25 06:43 36.69927 27.06788 35734 ft 456 kts 116°
2026-04-25 06:43 36.68667 27.10415 35974 ft 456 kts 116°
2026-04-25 06:43 36.67402 27.14055 36221 ft 455 kts 116°
2026-04-25 06:43 36.66155 27.17626 36426 ft 455 kts 117°
2026-04-25 06:44 36.64890 27.21244 36717 ft 454 kts 117°
2026-04-25 06:44 36.63629 27.24843 36978 ft 452 kts 117°
2026-04-25 06:44 36.62367 27.28441 37183 ft 452 kts 117°
2026-04-25 06:44 36.61107 27.32033 37340 ft 453 kts 117°
2026-04-25 06:45 36.59842 27.35631 37525 ft 454 kts 117°
2026-04-25 06:45 36.58578 27.39225 37749 ft 453 kts 117°
2026-04-25 06:45 36.57314 27.42818 37944 ft 453 kts 117°
2026-04-25 06:46 36.54770 27.50032 37938 ft 456 kts 117°
2026-04-25 06:46 36.52244 27.57184 37932 ft 451 kts 117°
2026-04-25 06:47 36.49723 27.64304 37934 ft 448 kts 117°
2026-04-25 06:47 36.47213 27.71374 37929 ft 446 kts 117°
2026-04-25 06:48 36.44705 27.78405 37919 ft 444 kts 117°
2026-04-25 06:48 36.42205 27.85382 37921 ft 445 kts 118°
2026-04-25 06:49 36.39677 27.92426 37917 ft 446 kts 117°
2026-04-25 06:49 36.37141 27.99482 37916 ft 448 kts 118°
2026-04-25 06:50 36.34560 28.06498 37910 ft 449 kts 122°
2026-04-25 06:50 36.30862 28.12619 37911 ft 442 kts 136°
2026-04-25 06:51 36.26615 28.18177 37922 ft 444 kts 136°
2026-04-25 06:51 36.22378 28.23763 37938 ft 446 kts 136°
2026-04-25 06:52 36.18173 28.29368 37930 ft 446 kts 136°
2026-04-25 06:52 36.14631 28.34100 37940 ft 447 kts 136°
2026-04-25 06:53 36.11832 28.37831 37923 ft 447 kts 136°
2026-04-25 06:53 36.06884 28.44408 37955 ft 446 kts 136°
2026-04-25 06:54 36.06193 28.45324 37955 ft 447 kts 136°
2026-04-25 06:54 36.03356 28.49080 37952 ft 447 kts 136°
2026-04-25 06:55 35.92976 28.62798 37965 ft 447 kts 136°
2026-04-25 06:55 35.88717 28.68411 37942 ft 447 kts 137°
2026-04-25 06:56 35.84306 28.73810 37957 ft 446 kts 140°
2026-04-25 06:56 35.79812 28.79033 37956 ft 447 kts 140°
2026-04-25 06:57 35.75284 28.84307 37958 ft 449 kts 140°
2026-04-25 06:57 35.70748 28.89624 37954 ft 450 kts 140°
2026-04-25 06:58 35.66217 28.94946 37951 ft 450 kts 140°
2026-04-25 06:58 35.61685 29.00264 37950 ft 451 kts 140°
2026-04-25 06:59 35.57142 29.05584 37954 ft 452 kts 140°
2026-04-25 06:59 35.52582 29.10915 37952 ft 453 kts 140°
2026-04-25 07:00 35.48012 29.16249 37949 ft 454 kts 140°
2026-04-25 07:00 35.43434 29.21582 37953 ft 454 kts 141°
2026-04-25 07:01 35.38852 29.26913 37950 ft 454 kts 141°
2026-04-25 07:01 35.34265 29.32239 37968 ft 454 kts 141°
2026-04-25 07:02 35.29707 29.37525 37952 ft 455 kts 141°
2026-04-25 07:02 35.25106 29.42849 37940 ft 455 kts 141°
2026-04-25 07:03 35.20499 29.48173 37948 ft 456 kts 141°
2026-04-25 07:03 35.15877 29.53506 37944 ft 456 kts 141°
2026-04-25 07:04 35.11259 29.58826 37944 ft 456 kts 141°
2026-04-25 07:04 35.06669 29.64107 37949 ft 456 kts 141°
2026-04-25 07:05 35.02048 29.69414 37944 ft 456 kts 141°
2026-04-25 07:05 34.99841 29.72205 37918 ft 462 kts 130°
2026-04-25 07:05 34.98695 29.74413 37953 ft 467 kts 120°
2026-04-25 07:05 34.97367 29.79481 37934 ft 478 kts 99°
2026-04-25 07:06 34.97187 29.83715 37948 ft 480 kts 94°
2026-04-25 07:06 34.97031 29.91864 37956 ft 480 kts 95°
2026-04-25 07:07 34.96329 29.99926 37952 ft 476 kts 107°
2026-04-25 07:07 34.93957 30.07365 37967 ft 469 kts 120°
2026-04-25 07:08 34.91076 30.14490 37939 ft 469 kts 120°
2026-04-25 07:08 34.88206 30.21641 37957 ft 470 kts 120°
2026-04-25 07:09 34.85382 30.28774 37958 ft 470 kts 120°
2026-04-25 07:09 34.82545 30.35965 37963 ft 471 kts 120°
2026-04-25 07:10 34.79704 30.43153 37953 ft 472 kts 120°
2026-04-25 07:10 34.77329 30.49143 37962 ft 472 kts 120°
2026-04-25 07:11 34.74003 30.57513 37967 ft 473 kts 120°
2026-04-25 07:11 34.71619 30.63501 37960 ft 473 kts 120°
2026-04-25 07:12 34.68745 30.70703 37965 ft 473 kts 120°
2026-04-25 07:12 34.64424 30.81507 37967 ft 473 kts 120°
2026-04-25 07:13 34.61495 30.88656 37960 ft 471 kts 124°
2026-04-25 07:13 34.57730 30.95012 37970 ft 465 kts 132°
2026-04-25 07:14 34.53737 31.01209 37963 ft 464 kts 132°
2026-04-25 07:14 34.49784 31.07404 37969 ft 464 kts 131°
2026-04-25 07:15 34.45885 31.13595 37967 ft 464 kts 131°
2026-04-25 07:15 34.41967 31.19838 37969 ft 465 kts 131°
2026-04-25 07:16 34.38050 31.26070 37962 ft 464 kts 131°
2026-04-25 07:16 34.34132 31.32289 37952 ft 464 kts 132°
2026-04-25 07:17 34.30209 31.38503 37968 ft 465 kts 132°
2026-04-25 07:17 34.26306 31.44674 37969 ft 465 kts 132°
2026-04-25 07:18 34.22364 31.50895 37966 ft 466 kts 132°
2026-04-25 07:18 34.18414 31.57120 37976 ft 467 kts 132°
2026-04-25 07:19 34.14454 31.63350 37969 ft 468 kts 132°
2026-04-25 07:19 34.10475 31.69597 37971 ft 469 kts 132°
2026-04-25 07:20 34.06514 31.75807 37958 ft 470 kts 132°
2026-04-25 07:20 34.02517 31.82062 37943 ft 470 kts 133°
2026-04-25 07:21 33.98517 31.88311 37963 ft 470 kts 133°
2026-04-25 07:21 33.94516 31.94549 37965 ft 471 kts 133°
2026-04-25 07:22 33.90506 32.00790 37959 ft 471 kts 133°
2026-04-25 07:22 33.86519 32.06987 37955 ft 471 kts 133°
2026-04-25 07:24 33.73760 32.25995 37958 ft 469 kts 135°
2026-04-25 07:24 33.69654 32.32087 37960 ft 469 kts 135°
2026-04-25 07:25 33.65544 32.38179 37949 ft 469 kts 135°
2026-04-25 07:25 33.61429 32.44269 37958 ft 469 kts 135°
2026-04-25 07:26 33.57307 32.50358 37960 ft 469 kts 135°
2026-04-25 07:26 33.53881 32.55411 37936 ft 470 kts 135°
2026-04-25 07:27 33.49076 32.62486 37935 ft 470 kts 135°
2026-04-25 07:27 33.45632 32.67549 37954 ft 471 kts 135°
2026-04-25 07:28 33.41477 32.73646 37957 ft 473 kts 135°
2026-04-25 07:28 33.37306 32.79757 37952 ft 474 kts 135°
2026-04-25 07:29 33.33123 32.85876 37882 ft 477 kts 135°
2026-04-25 07:29 33.31040 32.88917 37578 ft 479 kts 135°
2026-04-25 07:29 33.28936 32.91991 37289 ft 475 kts 135°
2026-04-25 07:30 33.26852 32.95033 37012 ft 472 kts 135°
2026-04-25 07:30 33.24775 32.98060 36406 ft 469 kts 135°
2026-04-25 07:30 33.22706 33.01071 35842 ft 467 kts 135°
2026-04-25 07:30 33.20644 33.04071 35195 ft 468 kts 135°
2026-04-25 07:31 33.18601 33.07075 34769 ft 463 kts 134°
2026-04-25 07:31 33.16619 33.10105 34135 ft 463 kts 134°
2026-04-25 07:31 33.14679 33.13123 33445 ft 464 kts 133°
2026-04-25 07:31 33.12714 33.16190 32694 ft 464 kts 133°
2026-04-25 07:32 33.10751 33.19245 31997 ft 463 kts 133°
2026-04-25 07:32 33.08781 33.22297 31259 ft 464 kts 133°
2026-04-25 07:32 33.06802 33.25348 30514 ft 465 kts 133°
2026-04-25 07:32 33.04818 33.28397 29693 ft 466 kts 132°
2026-04-25 07:33 33.02828 33.31448 28787 ft 467 kts 132°
2026-04-25 07:33 33.00859 33.34467 27902 ft 467 kts 132°
2026-04-25 07:33 32.98864 33.37521 27007 ft 467 kts 132°
2026-04-25 07:33 32.96863 33.40582 26106 ft 468 kts 132°
2026-04-25 07:34 32.94876 33.43623 25500 ft 462 kts 132°
2026-04-25 07:34 32.92906 33.46637 24837 ft 458 kts 132°
2026-04-25 07:34 32.90959 33.49612 24200 ft 453 kts 132°
2026-04-25 07:34 32.89031 33.52555 23561 ft 449 kts 131°
2026-04-25 07:35 32.87129 33.55454 22807 ft 446 kts 131°
2026-04-25 07:35 32.85235 33.58340 22144 ft 441 kts 131°
2026-04-25 07:35 32.83353 33.61207 21488 ft 436 kts 131°
2026-04-25 07:35 32.81429 33.63977 20894 ft 429 kts 136°
2026-04-25 07:36 32.79404 33.66545 20320 ft 423 kts 137°
2026-04-25 07:36 32.77378 33.69002 19687 ft 419 kts 138°
2026-04-25 07:36 32.75331 33.71461 19075 ft 417 kts 138°
2026-04-25 07:36 32.73300 33.73914 18457 ft 415 kts 137°
2026-04-25 07:37 32.71287 33.76365 17813 ft 412 kts 137°
2026-04-25 07:37 32.69304 33.78796 17170 ft 409 kts 137°
2026-04-25 07:37 32.67334 33.81218 16551 ft 405 kts 137°
2026-04-25 07:38 32.63517 33.85915 15350 ft 398 kts 137°
2026-04-25 07:38 32.61601 33.88270 14751 ft 395 kts 137°
2026-04-25 07:38 32.59704 33.90601 14148 ft 392 kts 137°
2026-04-25 07:38 32.57842 33.92887 13543 ft 389 kts 137°
2026-04-25 07:39 32.55947 33.95212 12938 ft 385 kts 136°
2026-04-25 07:39 32.54125 33.97475 12658 ft 374 kts 136°
2026-04-25 07:39 32.52346 33.99699 12379 ft 373 kts 136°
2026-04-25 07:39 32.50565 34.01924 12107 ft 378 kts 136°
2026-04-25 07:40 32.48774 34.04161 11809 ft 368 kts 136°
2026-04-25 07:40 32.47039 34.06326 11534 ft 357 kts 136°
2026-04-25 07:40 32.45359 34.08421 11261 ft 341 kts 136°
2026-04-25 07:40 32.43769 34.10402 11005 ft 322 kts 135°
2026-04-25 07:41 32.42290 34.12343 10768 ft 307 kts 130°
2026-04-25 07:41 32.41103 34.14340 10550 ft 294 kts 126°
2026-04-25 07:41 32.40015 34.16326 10336 ft 281 kts 125°
2026-04-25 07:41 32.38980 34.18216 10140 ft 275 kts 126°
2026-04-25 07:42 32.37924 34.20112 9967 ft 277 kts 126°
2026-04-25 07:42 32.36849 34.22015 9732 ft 279 kts 126°
2026-04-25 07:42 32.35764 34.23920 9519 ft 278 kts 126°
2026-04-25 07:42 32.34684 34.25810 9304 ft 277 kts 126°
2026-04-25 07:43 32.33606 34.27694 9093 ft 275 kts 126°
2026-04-25 07:43 32.32533 34.29564 8865 ft 275 kts 126°
2026-04-25 07:43 32.31458 34.31432 8599 ft 275 kts 126°
2026-04-25 07:43 32.30380 34.33303 8338 ft 275 kts 126°
2026-04-25 07:44 32.29306 34.35167 8081 ft 273 kts 126°
2026-04-25 07:44 32.28240 34.37015 7829 ft 270 kts 126°
2026-04-25 07:44 32.27202 34.38815 7578 ft 267 kts 126°
2026-04-25 07:44 32.26161 34.40620 7320 ft 265 kts 126°
2026-04-25 07:45 32.25130 34.42405 7084 ft 262 kts 126°
2026-04-25 07:45 32.24108 34.44176 6834 ft 260 kts 125°
2026-04-25 07:45 32.23094 34.45931 6593 ft 258 kts 126°
2026-04-25 07:45 32.22084 34.47672 6349 ft 256 kts 126°
2026-04-25 07:46 32.21072 34.49414 6107 ft 258 kts 126°
2026-04-25 07:46 32.20051 34.51173 5855 ft 260 kts 126°
2026-04-25 07:46 32.19026 34.52938 5591 ft 260 kts 125°
2026-04-25 07:46 32.18023 34.54665 5356 ft 257 kts 126°
2026-04-25 07:47 32.17004 34.56392 5112 ft 252 kts 125°
2026-04-25 07:47 32.16063 34.58061 4883 ft 238 kts 123°
2026-04-25 07:47 32.15200 34.59670 4625 ft 225 kts 123°
2026-04-25 07:47 32.14403 34.61194 4397 ft 211 kts 122°
2026-04-25 07:48 32.13662 34.62633 4166 ft 199 kts 122°
2026-04-25 07:48 32.12965 34.63994 3968 ft 187 kts 122°
2026-04-25 07:48 32.12321 34.65256 3779 ft 178 kts 122°
2026-04-25 07:48 32.11683 34.66505 3628 ft 179 kts 121°
2026-04-25 07:49 32.11053 34.67751 3449 ft 175 kts 121°
2026-04-25 07:49 32.10440 34.68960 3267 ft 168 kts 122°
2026-04-25 07:49 32.09839 34.70140 3083 ft 167 kts 121°
2026-04-25 07:49 32.09255 34.71284 3014 ft 162 kts 121°
2026-04-25 07:50 32.08654 34.72459 2846 ft 171 kts 121°
2026-04-25 07:50 32.08040 34.73660 2646 ft 167 kts 122°
2026-04-25 07:50 32.07451 34.74812 2409 ft 160 kts 122°
2026-04-25 07:50 32.06889 34.75913 2179 ft 154 kts 121°
2026-04-25 07:51 32.06534 34.76608 2111 ft 153 kts 122°
2026-04-25 07:51 32.05783 34.78077 1803 ft 150 kts 121°
2026-04-25 07:51 32.05261 34.79102 1604 ft 145 kts 121°
2026-04-25 07:51 32.04748 34.80107 1428 ft 143 kts 121°
2026-04-25 07:52 32.04240 34.81100 1239 ft 146 kts 121°
2026-04-25 07:52 32.03712 34.82135 1047 ft 145 kts 122°
2026-04-25 07:52 32.03190 34.83161 850 ft 145 kts 120°
2026-04-25 07:52 32.02707 34.84224 659 ft 150 kts 120°
2026-04-25 07:53 32.02145 34.85251 474 ft 147 kts 122°
2026-04-25 07:53 32.01623 34.86287 237 ft 148 kts 120°
2026-04-25 07:53 32.01100 34.87292 116 ft 134 kts 121°
2026-04-25 07:53 32.00691 34.88076 117 ft 91 kts 122°
2026-04-25 07:54 32.00485 34.88468 124 ft 21 kts 127°
2026-04-25 07:54 32.00385 34.88588 125 ft 20 kts 140°
2026-04-25 07:54 32.00269 34.88663 123 ft 17 kts 158°
2026-04-25 07:54 32.00236 34.88674 120 ft 3 kts 162°
2026-04-25 07:55 32.00197 34.88693 123 ft 11 kts 166°
2026-04-25 07:55 32.00101 34.88657 121 ft 19 kts 263°
2026-04-25 07:55 32.00160 34.88514 120 ft 22 kts 302°
2026-04-25 07:55 32.00251 34.88336 118 ft 28 kts 301°
2026-04-25 07:56 32.00351 34.88147 119 ft 26 kts 301°
2026-04-25 07:56 32.00442 34.87969 117 ft 24 kts 302°
2026-04-25 07:56 32.00525 34.87813 118 ft 22 kts 302°
2026-04-25 07:56 32.00551 34.87657 116 ft 20 kts 238°
2026-04-25 07:57 32.00485 34.87575 116 ft 8 kts 193°
2026-04-25 07:57 32.00467 34.87570 118 ft 8 kts 191°